Погода в Мормугао

Индия     15°22′22″N   73°53′25″E
темп.,
°C
ветер,
м/с
пор.,
м/с
влажн.,
%
обл.,
%
осадки,
мм/ч
давл.,
гПа
погр.,
м
8 августа, пн
пн823:30+25зюз71289100 16.6 1004734
02:30+25зюз61190100 9.7 1003630
05:30+25зюз61191100 18.8 1003742
08:30+26зюз61190100 7.1 1004883
11:30+25зюз61289100 14.4 1004946
14:30+25зюз71389100 7.6 10021072
17:30+25зюз61289100 15.4 1003961
20:30+25зюз71389100 7.6 1004903
9 августа, вт
вт923:30+25зюз7138998 15.4 1004948
02:30+25зюз61389100 5.8 1002928
05:30+25зюз71389100 11.8 1002847
08:30+26зюз71388100 5.4 10041068
11:30+27зюз81484100 10.4 10041188
14:30+26зюз81485100 5.1 10031176
17:30+25зюз8148798 10.8 10031082
20:30+25юз71388100 5.6 1004891
10 августа, ср
ср1023:30+25зюз6118899 10.5 1004769
02:30+25юз51088100 3.8 1003671
05:30+25юз7138718 10.3 1002746
08:30+26юз7138665 6.4 10041082
11:30+28юз8138187 10.9 10051210
14:30+27юз81383100 5.1 10031179
17:30+26юз81383100 10.0 10031142
20:30+26юз71387100 5.6 1005844
11 августа, чт
чт1123:30+26юз61285100 10.2 1005715
02:30+25юз61288100 5.3 1004764
05:30+25юз61189100 9.9 1004672
08:30+26зюз61187100 5.7 1006909
11:30+27зюз71081100 10.3 10061023
14:30+28юз71179100 2.8 10051132
17:30+26зюз61185100 6.4 10051017
20:30+25зюз51188100 5.4 1006638
12 августа, пт
пт1223:30+25зюз51088100 11.7 1007541
02:30+25зюз5108991 5.4 1005602
05:30+25зюз5109051 10.2 1005647
08:30+26зюз5108777 4.1 1006907
11:30+27зюз7118461 9.0 10061018
14:30+28зюз7118035 5.2 10051075
17:30+26зюз61185100 9.3 10051043
20:30+26з61186100 5.6 1006666